KC3WWU Weather Reports


time (UTC)temp
C
wind
direction
speed
KPH
gust
KPH
rain 1hr
cm
rain 24hr
cm
rain mn
cm
humidity
%
barometer
mb
20260507164055 12 293 3.2 3.2 0.00 0.00 0.00 57 1008.9
20260507163553 12 339 8.0 9.7 0.00 0.00 0.00 52 1008.9
20260507163051 12 322 3.2 4.8 0.00 0.00 0.00 50 1009.2
20260507162550 13 325 8.0 9.7 0.00 0.00 0.00 51 1009.1
20260507162047 12 20 3.2 4.8 0.00 0.00 0.00 48 1009.1
20260507161543 12 78 3.2 6.4 0.00 0.00 0.00 52 1009.2
20260507161040 12 42 3.2 4.8 0.00 0.00 0.00 49 1009.1
20260507160536 11 333 8.0 11.3 0.00 0.00 0.00 51 1009.2
20260507160033 11 356 4.8 4.8 0.00 0.00 0.00 57 1009.5
20260507155528 11 336 6.4 6.4 0.00 0.00 0.00 50 1009.4
20260507155026 12 228 8.0 9.7 0.00 0.00 0.00 50 1009.4
20260507154523 11 70 4.8 9.7 0.00 0.00 0.00 51 1009.3
20260507154020 12 283 8.0 11.3 0.00 0.00 0.00 49 1009.5
20260507153516 11 219 1.6 3.2 0.00 0.00 0.00 50 1009.3
20260507153012 12 32 4.8 6.4 0.00 0.00 0.00 55 1009.7
20260507152508 11 249 6.4 9.7 0.00 0.00 0.00 53 1009.9
20260507152005 12 303 6.4 9.7 0.00 0.00 0.00 53 1009.8
20260507151501 11 79 1.6 3.2 0.00 0.00 0.00 55 1009.7
20260507150958 11 229 6.4 6.4 0.00 0.00 0.00 55 1009.9
20260507150455 11 332 6.4 9.7 0.00 0.00 0.00 52 1009.8
20260507145951 11 321 3.2 4.8 0.00 0.00 0.00 55 1009.9
20260507145447 11 39 3.2 3.2 0.00 0.00 0.00 52 1010.2
20260507144944 11 322 4.8 4.8 0.00 0.00 0.00 55 1010.2
20260507144441 11 324 8.0 9.7 0.00 0.00 0.00 55 1009.9
20260507143938 10 23 1.6 1.6 0.00 0.00 0.00 51 1010.0
20260507143436 10 314 3.2 4.8 0.00 0.00 0.00 52 1010.2
20260507142932 10 344 4.8 4.8 0.00 0.00 0.00 55 1010.4
20260507142428 10 294 3.2 6.4 0.00 0.00 0.00 57 1010.4
20260507141925 10 184 3.2 3.2 0.00 0.00 0.00 59 1010.5
20260507141421 10 267 4.8 4.8 0.00 0.00 0.00 61 1010.4
20260507140918 10 301 4.8 4.8 0.00 0.00 0.00 62 1010.6
20260507140414 10 19 3.2 3.2 0.00 0.00 0.00 60 1010.6
20260507135913 10 230 3.2 4.8 0.00 0.00 0.00 61 1010.4
20260507135409 10 328 8.0 11.3 0.00 0.00 0.00 61 1010.8
20260507134906 9 322 3.2 3.2 0.00 0.00 0.00 64 1010.9
20260507134402 9 38 1.6 1.6 0.00 0.00 0.00 65 1010.5
20260507133859 9 342 3.2 3.2 0.00 0.00 0.00 64 1010.9
20260507133354 8 340 3.2 3.2 0.00 0.00 0.00 66 1010.7
20260507132853 8 297 3.2 3.2 0.00 0.00 0.00 63 1010.7
20260507132349 8 350 3.2 3.2 0.00 0.00 0.00 62 1010.6
20260507131846 8 46 1.6 3.2 0.00 0.00 0.00 63 1010.8
20260507131343 8 47 0.0 0.0 0.00 0.00 0.00 64 1010.7
20260507130840 7 23 1.6 1.6 0.00 0.00 0.00 67 1010.8
20260507130337 7 1 1.6 3.2 0.00 0.00 0.00 66 1010.9
20260507125836 7 356 4.8 6.4 0.00 0.00 0.00 67 1011.0
20260507125333 7 14 1.6 3.2 0.00 0.00 0.00 68 1011.1
20260507124830 7 62 0.0 0.0 0.00 0.00 0.00 67 1011.1
20260507124326 7 27 1.6 3.2 0.00 0.00 0.00 70 1011.0
20260507123825 6 22 0.0 1.6 0.00 0.00 0.00 71 1011.0
20260507123322 6 330 6.4 6.4 0.00 0.00 0.00 72 1011.3
20260507122818 6 42 1.6 1.6 0.00 0.00 0.00 78 1010.9
20260507122313 6 58 1.6 1.6 0.00 0.00 0.00 75 1011.1
20260507121810 5 35 1.6 1.6 0.00 0.00 0.00 75 1010.9
20260507121306 4 29 1.6 1.6 0.00 0.00 0.00 82 1010.9
20260507120802 4 46 0.0 0.0 0.00 0.00 0.00 90 1010.8
20260507120259 3 46 0.0 0.0 0.00 0.00 0.00 90 1011.0
20260507115755 3 48 0.0 1.6 0.00 0.00 0.00 96 1011.0
20260507115250 2 263 3.2 3.2 0.00 0.00 0.00 98 1010.8
20260507114746 2 72 0.0 0.0 0.00 0.00 0.00 99 1010.9
20260507114244 2 72 0.0 0.0 0.00 0.00 0.00 99 1010.8
20260507113741 2 72 0.0 0.0 0.00 0.00 0.00 99 1010.7
20260507113238 1 73 0.0 0.0 0.00 0.00 0.00 99 1010.6
20260507112736 1 73 0.0 0.0 0.00 0.00 0.00 99 1010.5
20260507112232 1 73 0.0 0.0 0.00 0.00 0.00 99 1010.6
20260507111730 1 73 0.0 0.0 0.00 0.00 0.00 99 1010.3
20260507111227 1 73 0.0 0.0 0.00 0.00 0.00 99 1010.4
20260507110723 1 73 0.0 0.0 0.00 0.00 0.00 99 1010.4
20260507110219 0 73 0.0 0.0 0.00 0.00 0.00 99 1010.5
20260507105716 0 73 0.0 0.0 0.00 0.00 0.00 99 1010.5
20260507105212 0 73 0.0 0.0 0.00 0.00 0.00 99 1010.4
20260507104710 0 73 0.0 0.0 0.00 0.00 0.00 99 1010.2
20260507104206 0 73 0.0 0.0 0.00 0.00 0.00 99 1010.3
20260507103702 0 73 0.0 0.0 0.00 0.00 0.00 99 1010.2
20260507103159 0 73 0.0 0.0 0.00 0.00 0.00 99 1010.0
20260507102655 0 73 0.0 0.0 0.00 0.00 0.00 99 1009.9
20260507102152 0 73 0.0 0.0 0.00 0.00 0.00 99 1010.0
20260507101647 0 73 0.0 0.0 0.00 0.00 0.00 99 1009.9
20260507101143 0 73 0.0 0.0 0.00 0.00 0.00 99 1010.2
20260507100641 0 73 0.0 0.0 0.00 0.00 0.00 99 1010.2
20260507100140 0 73 0.0 1.6 0.00 0.00 0.00 99 1010.2
20260507095637 0 73 0.0 0.0 0.00 0.00 0.00 99 1009.9
20260507095133 0 73 0.0 0.0 0.00 0.00 0.00 99 1010.0
20260507094629 0 73 0.0 0.0 0.00 0.00 0.00 99 1009.9
20260507094126 0 73 0.0 0.0 0.00 0.00 0.00 99 1010.0
20260507093624 1 73 0.0 1.6 0.00 0.00 0.00 99 1010.2
20260507093123 1 73 0.0 1.6 0.00 0.00 0.00 98 1010.3
20260507092619 1 73 0.0 0.0 0.00 0.00 0.00 98 1010.3
20260507092115 1 73 0.0 0.0 0.00 0.00 0.00 98 1009.9
20260507091612 1 73 0.0 0.0 0.00 0.00 0.00 97 1010.0
20260507091108 1 73 0.0 0.0 0.00 0.00 0.00 98 1009.9
20260507090604 1 73 0.0 0.0 0.00 0.00 0.00 97 1010.2
20260507090101 1 73 0.0 0.0 0.00 0.00 0.00 98 1010.2
20260507085558 1 73 0.0 0.0 0.00 0.00 0.00 97 1010.0
20260507085055 1 73 0.0 0.0 0.00 0.00 0.00 97 1010.0
20260507084551 1 73 1.6 1.6 0.00 0.00 0.00 97 1010.2
20260507084048 1 73 0.0 0.0 0.00 0.00 0.00 97 1010.0
20260507083544 1 73 0.0 0.0 0.00 0.00 0.00 95 1010.0
20260507083042 2 72 0.0 1.6 0.00 0.00 0.00 96 1010.2
20260507082538 2 76 0.0 0.0 0.00 0.00 0.00 95 1009.8
20260507082034 2 72 0.0 0.0 0.00 0.00 0.00 95 1009.9
20260507081531 2 60 0.0 0.0 0.00 0.00 0.00 95 1010.0
20260507081028 2 56 0.0 0.0 0.00 0.00 0.00 96 1010.3
20260507080523 2 55 0.0 0.0 0.00 0.00 0.00 95 1010.4
20260507080020 3 55 0.0 0.0 0.00 0.00 0.00 93 1010.2
20260507075515 3 55 0.0 0.0 0.00 0.00 0.00 92 1010.3
20260507075012 3 55 0.0 0.0 0.00 0.00 0.00 90 1010.0
20260507074509 3 55 0.0 0.0 0.00 0.00 0.00 89 1009.9
20260507074008 4 55 0.0 0.0 0.00 0.00 0.00 88 1010.0
20260507073503 4 54 0.0 0.0 0.00 0.00 0.00 85 1009.9
20260507073000 5 54 0.0 0.0 0.00 0.00 0.00 87 1010.2
20260507072458 5 54 0.0 0.0 0.00 0.00 0.00 86 1010.3
20260507071954 5 54 0.0 0.0 0.00 0.00 0.00 86 1010.2
20260507071451 5 54 0.0 0.0 0.00 0.00 0.00 85 1010.4
20260507070948 5 55 0.0 0.0 0.00 0.00 0.00 87 1010.4
20260507070445 5 55 0.0 0.0 0.00 0.00 0.00 86 1010.3
20260507065942 5 55 0.0 0.0 0.00 0.00 0.00 87 1009.9
20260507065439 5 55 0.0 0.0 0.00 0.00 0.00 88 1010.0
20260507064936 5 55 0.0 0.0 0.00 0.00 0.00 84 1010.3
20260507064434 5 54 0.0 0.0 0.00 0.00 0.00 81 1010.5
20260507063932 5 54 0.0 0.0 0.00 0.00 0.00 81 1010.4
20260507063428 5 54 0.0 0.0 0.00 0.00 0.00 82 1010.3
20260507062926 5 53 0.0 0.0 0.00 0.00 0.00 80 1010.5
20260507062423 5 65 0.0 0.0 0.00 0.00 0.00 78 1010.4
20260507061915 5 29 1.6 1.6 0.00 0.00 0.00 79 1010.3
20260507061412 6 69 0.0 0.0 0.00 0.00 0.00 79 1010.5
20260507060911 5 27 1.6 1.6 0.00 0.00 0.00 77 1010.7
20260507060407 6 49 0.0 0.0 0.00 0.00 0.00 80 1010.7
20260507055904 6 53 0.0 0.0 0.00 0.00 0.00 77 1010.7
20260507055359 6 59 0.0 0.0 0.00 0.00 0.00 79 1010.7
20260507054856 5 61 1.6 1.6 0.00 0.00 0.00 79 1010.8
20260507054352 6 44 0.0 1.6 0.00 0.00 0.00 79 1010.8
20260507053850 6 41 0.0 1.6 0.00 0.00 0.00 78 1010.8
20260507053347 6 13 3.2 3.2 0.00 0.00 0.00 76 1010.7
20260507052846 6 22 1.6 3.2 0.00 0.00 0.00 81 1010.6
20260507052342 6 33 1.6 1.6 0.00 0.00 0.00 82 1010.7
20260507051840 6 46 0.0 1.6 0.00 0.00 0.00 83 1010.6
20260507051337 6 46 0.0 0.0 0.00 0.00 0.00 86 1010.7
20260507050833 6 46 0.0 0.0 0.00 0.00 0.00 87 1010.7
20260507050330 5 63 0.0 0.0 0.00 0.00 0.00 89 1011.0
20260507045827 5 63 0.0 0.0 0.00 0.00 0.00 90 1010.6
20260507045323 6 63 0.0 0.0 0.00 0.00 0.00 88 1010.8
20260507044821 6 63 0.0 0.0 0.00 0.00 0.00 89 1010.7
20260507044317 6 63 0.0 0.0 0.00 0.00 0.00 87 1010.8
20260507043813 6 63 0.0 0.0 0.00 0.00 0.00 86 1010.9
20260507043310 6 63 0.0 0.0 0.00 0.00 0.00 86 1010.6
20260507042806 6 63 0.0 0.0 0.00 0.00 0.00 87 1010.8
20260507042302 6 63 0.0 0.0 0.00 0.00 0.00 84 1010.8
20260507041759 6 62 0.0 0.0 0.00 0.00 0.00 84 1010.7
20260507041255 6 68 0.0 0.0 0.00 0.00 0.00 86 1010.7
20260507040753 6 68 0.0 0.0 0.00 0.00 0.00 85 1010.8
20260507040248 6 71 0.0 0.0 0.00 0.00 0.00 88 1011.0
20260507035745 6 72 0.0 0.0 0.00 0.46 0.46 89 1010.7
20260507035240 6 71 0.0 0.0 0.00 0.46 0.46 91 1010.7
20260507034738 6 71 0.0 0.0 0.00 0.46 0.46 90 1010.5
20260507034235 6 71 0.0 0.0 0.00 0.46 0.46 90 1010.4
20260507033733 6 71 0.0 0.0 0.00 0.46 0.46 88 1010.4
20260507033230 6 71 0.0 0.0 0.00 0.46 0.46 89 1010.3
20260507032728 6 71 0.0 0.0 0.00 0.46 0.46 88 1010.8
20260507032223 6 71 0.0 0.0 0.00 0.46 0.46 89 1010.4
20260507031720 7 71 0.0 0.0 0.00 0.46 0.46 90 1010.6
20260507031217 6 71 0.0 0.0 0.00 0.46 0.46 86 1010.6
20260507030714 7 71 0.0 0.0 0.00 0.46 0.46 89 1010.4
20260507030211 7 71 0.0 0.0 0.00 0.46 0.46 87 1010.4
20260507025708 7 72 0.0 0.0 0.00 0.46 0.46 85 1010.3
20260507025205 7 68 0.0 0.0 0.00 0.46 0.46 82 1010.7
20260507024703 7 62 0.0 0.0 0.00 0.46 0.46 81 1010.3
20260507024200 7 34 1.6 3.2 0.00 0.46 0.46 80 1010.3
20260507023655 7 109 0.0 1.6 0.00 0.46 0.46 79 1010.0
20260507023153 7 63 0.0 0.0 0.00 0.46 0.46 79 1010.2
20260507022650 7 5 1.6 1.6 0.00 0.46 0.46 79 1010.2
20260507022146 7 43 1.6 1.6 0.00 0.46 0.46 81 1010.0
20260507021642 7 106 1.6 3.2 0.00 0.46 0.46 82 1009.8
20260507021132 7 22 1.6 3.2 0.00 0.46 0.46 83 1009.7
20260507020631 7 84 1.6 1.6 0.00 0.46 0.46 80 1009.8
20260507020127 7 356 3.2 3.2 0.00 0.46 0.46 82 1009.6
20260507015626 7 117 1.6 1.6 0.00 0.46 0.46 85 1010.0
20260507015123 7 359 3.2 3.2 0.00 0.46 0.46 88 1010.0
20260507014619 7 273 4.8 4.8 0.00 0.46 0.46 89 1009.9
20260507014115 7 63 0.0 0.0 0.00 0.46 0.46 93 1009.7
20260507013612 7 74 0.0 1.6 0.00 0.46 0.46 91 1009.7
20260507013109 8 45 0.0 0.0 0.00 0.46 0.46 93 1009.7
20260507012607 8 43 0.0 0.0 0.00 0.46 0.46 93 1009.9
20260507012102 8 51 0.0 0.0 0.00 0.46 0.46 91 1010.2
20260507011600 8 50 0.0 0.0 0.00 0.46 0.46 92 1010.2
20260507011056 8 42 1.6 1.6 0.00 0.46 0.46 92 1010.3
20260507010556 8 43 1.6 1.6 0.00 0.46 0.46 92 1010.2
20260507010052 8 44 0.0 0.0 0.00 0.46 0.46 92 1010.3
20260507005550 8 45 0.0 0.0 0.00 0.46 0.46 92 1010.3
20260507005046 8 50 0.0 0.0 0.00 0.46 0.46 92 1010.2
20260507004543 8 44 0.0 1.6 0.00 0.46 0.46 92 1010.4
20260507004040 8 39 1.6 1.6 0.00 0.46 0.46 90 1010.3
20260507003537 8 155 3.2 4.8 0.00 0.46 0.46 92 1010.0
20260507003032 8 47 0.0 0.0 0.00 0.46 0.46 93 1009.8
20260507002529 8 36 1.6 1.6 0.00 0.46 0.46 93 1009.9
20260507002024 8 39 0.0 1.6 0.00 0.46 0.46 92 1010.3
20260507001521 8 20 1.6 1.6 0.00 0.46 0.46 91 1009.9
20260507001019 8 17 1.6 3.2 0.00 0.46 0.46 91 1009.8
20260507000514 8 39 1.6 1.6 0.00 0.46 0.46 91 1009.8
20260507000010 8 62 0.0 0.0 0.00 0.46 0.46 92 1009.6
20260506235507 8 26 1.6 1.6 0.00 0.46 0.46 91 1009.4
20260506235003 8 44 0.0 0.0 0.00 0.46 0.46 90 1009.3
20260506234501 8 37 1.6 1.6 0.00 0.46 0.46 90 1009.3
20260506233959 8 42 0.0 0.0 0.00 0.46 0.46 91 1009.3
20260506233455 8 42 0.0 1.6 0.00 0.46 0.46 91 1009.3
20260506232951 8 291 3.2 4.8 0.00 0.46 0.46 91 1009.1
20260506232448 8 38 0.0 1.6 0.00 0.46 0.46 92 1009.1
20260506231943 8 33 1.6 1.6 0.00 0.46 0.46 92 1009.2
20260506231441 8 15 3.2 3.2 0.00 0.46 0.46 92 1009.1
20260506230938 8 33 1.6 1.6 0.00 0.46 0.46 92 1008.8
20260506230434 8 30 1.6 3.2 0.00 0.46 0.46 92 1008.9
20260506225931 9 15 1.6 3.2 0.00 0.46 0.46 93 1008.9
20260506225428 9 42 0.0 0.0 0.00 0.46 0.46 92 1008.8
20260506224925 9 4 1.6 1.6 0.00 0.46 0.46 92 1009.0
20260506224422 8 355 3.2 3.2 0.00 0.46 0.46 92 1008.7
20260506223919 9 40 1.6 1.6 0.00 0.46 0.46 94 1008.7
20260506223414 9 28 1.6 1.6 0.00 0.46 0.46 94 1008.9
20260506222911 9 7 1.6 3.2 0.00 0.46 0.46 94 1008.8
20260506222408 8 24 1.6 3.2 0.00 0.46 0.46 93 1008.9
20260506221906 9 22 3.2 4.8 0.00 0.46 0.46 93 1009.0
20260506221402 9 278 4.8 4.8 0.00 0.46 0.46 93 1008.9
20260506220859 9 340 3.2 3.2 0.00 0.46 0.46 92 1008.7
20260506220355 9 286 6.4 9.7 0.00 0.46 0.46 92 1008.8
20260506215852 9 30 1.6 1.6 0.00 0.46 0.46 93 1008.4
20260506215348 9 32 0.0 1.6 0.00 0.46 0.46 93 1008.2
20260506214844 9 36 1.6 1.6 0.00 0.46 0.46 93 1008.4
20260506214341 9 85 1.6 1.6 0.00 0.46 0.46 93 1008.2
20260506213839 9 272 4.8 4.8 0.00 0.46 0.46 93 1008.2
20260506213336 9 296 4.8 4.8 0.00 0.46 0.46 93 1008.4
20260506212833 10 356 1.6 3.2 0.00 0.46 0.46 94 1007.9
20260506212329 10 69 1.6 3.2 0.00 0.46 0.46 94 1007.8
20260506211824 10 8 3.2 3.2 0.00 0.46 0.46 94 1008.0
20260506211320 10 27 1.6 1.6 0.00 0.46 0.46 94 1007.9
20260506210818 10 36 0.0 1.6 0.00 0.46 0.46 95 1007.9
20260506210314 10 25 4.8 4.8 0.00 0.46 0.46 95 1007.7
20260506205812 10 10 1.6 3.2 0.00 0.46 0.46 96 1007.6
20260506205308 10 333 3.2 4.8 0.00 0.46 0.46 95 1007.6
20260506204804 10 23 1.6 1.6 0.00 0.46 0.46 96 1007.5
20260506204302 10 7 3.2 3.2 0.00 0.46 0.46 95 1007.2
20260506203800 10 315 3.2 3.2 0.00 0.46 0.46 97 1007.5
20260506203257 10 286 6.4 6.4 0.00 0.46 0.46 97 1007.2
20260506202753 10 32 1.6 1.6 0.00 0.46 0.46 97 1007.4
20260506202250 10 278 4.8 4.8 0.00 0.46 0.46 97 1007.3
20260506201747 10 3 3.2 6.4 0.00 0.46 0.46 98 1007.4
20260506201244 10 24 3.2 3.2 0.00 0.46 0.46 98 1007.7
20260506200741 10 296 4.8 4.8 0.00 0.46 0.46 98 1007.5
20260506200237 10 352 3.2 3.2 0.00 0.46 0.46 99 1007.7
20260506195733 10 9 1.6 3.2 0.00 0.46 0.46 99 1007.5
20260506195230 10 345 3.2 3.2 0.00 0.46 0.46 99 1007.5
20260506194728 10 301 6.4 6.4 0.00 0.46 0.46 99 1007.3
20260506194224 10 288 3.2 3.2 0.00 0.46 0.46 99 1007.4
20260506193722 10 358 3.2 3.2 0.00 0.46 0.46 99 1007.6
20260506193218 10 301 6.4 6.4 0.00 0.46 0.46 99 1007.1
20260506192715 10 8 3.2 4.8 0.00 0.46 0.46 99 1007.3
20260506192212 10 0 4.8 4.8 0.00 0.46 0.46 99 1007.2
20260506191703 10 296 3.2 4.8 0.00 0.46 0.46 99 1007.3
20260506191159 10 331 3.2 3.2 0.00 0.46 0.46 99 1007.2
20260506190656 10 335 3.2 3.2 0.00 0.46 0.46 99 1007.0
20260506190153 10 29 3.2 3.2 0.00 0.46 0.46 99 1007.0
20260506185650 10 8 4.8 4.8 0.00 0.46 0.46 99 1007.1
20260506185146 10 316 4.8 6.4 0.00 0.46 0.46 99 1007.1
20260506184644 10 320 4.8 4.8 0.00 0.46 0.46 99 1006.9
20260506184141 10 303 6.4 6.4 0.00 0.46 0.46 99 1007.0
20260506183637 10 255 4.8 4.8 0.00 0.46 0.46 99 1007.0
20260506183133 10 329 3.2 3.2 0.00 0.46 0.46 99 1006.9
20260506182631 10 39 0.0 1.6 0.00 0.46 0.46 99 1007.0
20260506182128 10 5 3.2 3.2 0.00 0.46 0.46 99 1006.9
20260506181626 10 35 1.6 1.6 0.00 0.46 0.46 99 1006.8
20260506181123 10 282 4.8 4.8 0.00 0.46 0.46 99 1006.6
20260506180619 10 306 4.8 4.8 0.00 0.46 0.46 99 1006.8
20260506180116 11 294 6.4 6.4 0.00 0.46 0.46 99 1006.9
20260506175612 11 294 4.8 4.8 0.00 0.46 0.46 99 1006.8
20260506175108 11 268 4.8 9.7 0.00 0.46 0.46 99 1006.4
20260506174608 11 293 4.8 4.8 0.00 0.46 0.46 99 1006.1
20260506174103 11 327 6.4 9.7 0.00 0.46 0.46 99 1006.2
20260506173601 12 304 4.8 4.8 0.00 0.46 0.46 99 1006.4
20260506173058 12 319 6.4 6.4 0.00 0.46 0.46 99 1006.2
20260506172555 12 308 4.8 6.4 0.00 0.46 0.46 99 1006.0
20260506172051 12 271 3.2 3.2 0.00 0.46 0.46 99 1005.9
20260506171549 12 289 6.4 6.4 0.00 0.46 0.46 99 1006.1
20260506171046 11 234 3.2 4.8 0.00 0.46 0.46 99 1006.0
20260506170543 12 345 3.2 3.2 0.00 0.46 0.46 99 1005.9
20260506170035 11 16 3.2 3.2 0.00 0.46 0.46 99 1005.9
20260506165533 11 17 1.6 1.6 0.18 0.46 0.46 99 1006.1
20260506165029 11 305 3.2 4.8 0.18 0.46 0.46 99 1005.9
20260506164526 11 37 1.6 3.2 0.00 0.43 0.43 99 1006.1